Weather reports worldwide

Advertisment
High Wycombe, United Kingdom (3660): temperature & dewpoint: 16.01.2019 03:00:00 - 22.01.2019 03:00:00 (GMT)High Wycombe, United Kingdom (3660): wind speed & gusts: 16.01.2019 03:00:00 - 22.01.2019 03:00:00 (GMT)High Wycombe, United Kingdom (3660): wind direction: 16.01.2019 03:00:00 - 22.01.2019 03:00:00 (GMT)High Wycombe, United Kingdom (3660): reduced air pressure: 16.01.2019 03:00:00 - 22.01.2019 03:00:00 (GMT)High Wycombe, United Kingdom (3660): visibility: 16.01.2019 03:00:00 - 22.01.2019 03:00:00 (GMT)High Wycombe, United Kingdom (3660): precipitation: 16.01.2019 03:00:00 - 22.01.2019 03:00:00 (GMT)
Date & Time tt [°C] td [°C] ff [km/h] ff [kn] fx [km/h] fx [kn] dd ppp [hPa] vv [km] rr [mm]
22.01.2019 03:00:00 3,5 2,8 16 9 - - WNW 1004,4 45 0,2
22.01.2019 02:00:00 4,3 4,0 16 9 - - WSW 1005,1 9 2,8
22.01.2019 01:00:00 4,6 4,4 18 10 - - SW 1006,4 5 1,6
22.01.2019 00:00:00 3,8 3,7 11 6 - - S 1008,1 3,1 0,4
21.01.2019 23:00:00 3,4 3,3 13 7 - - S 1009,7 3,2 0,0
21.01.2019 22:00:00 2,7 2,5 11 6 - - SSW 1011,7 2,7 0,2
21.01.2019 21:00:00 2,5 1,7 11 6 - - SSW 1013,5 5 0,2
21.01.2019 20:00:00 2,1 0,8 13 7 - - SSW 1014,7 8 0,0
21.01.2019 19:00:00 2,2 0,2 9 5 - - S 1016,0 11 0,0
21.01.2019 18:00:00 2,5 -0,2 11 6 - - SW 1017,6 17 0,0
21.01.2019 17:00:00 2,7 -0,2 11 6 - - SW 1018,7 17 0,0
21.01.2019 16:00:00 3,1 -0,5 13 7 - - SW 1019,4 24 0,0
21.01.2019 15:00:00 3,6 0,5 9 5 - - SW 1020,0 12 0,0
21.01.2019 14:00:00 3,8 1,1 8 4 - - SW 1021,1 10 0,0
21.01.2019 13:00:00 3,9 1,5 8 4 - - S 1022,1 7 0,0
21.01.2019 12:00:00 3,6 1,7 5 3 - - S 1023,0 6 0,0
21.01.2019 11:00:00 2,7 1,8 4 2 - - S 1024,2 4,4 0,0
21.01.2019 10:00:00 2,2 1,8 2 1 - - NW 1025,0 3,5 0,0
21.01.2019 09:00:00 1,8 1,4 2 1 - - NW 1024,9 2,5 0,0
21.01.2019 08:00:00 1,7 1,3 4 2 - - NW 1024,7 2,4 0,0
21.01.2019 07:00:00 1,6 1,3 5 3 - - NW 1024,7 2,8 0,0
21.01.2019 06:00:00 1,6 1,2 4 2 - - NNW 1024,6 2,3 0,0
21.01.2019 05:00:00 2,0 1,2 5 3 - - N 1024,8 3,3 0,0
21.01.2019 04:00:00 1,9 1,4 4 2 - - NNW 1024,6 2,8 0,0
21.01.2019 03:00:00 1,9 1,4 5 3 - - NNW 1024,8 2,7 0,0
21.01.2019 02:00:00 2,0 1,3 4 2 - - NW 1025,0 4,1 0,0
21.01.2019 01:00:00 1,7 0,7 2 1 - - NW 1024,9 5 0,0
21.01.2019 00:00:00 1,8 0,5 0 0 - - N 1024,6 5 0,0
20.01.2019 23:00:00 1,8 0,2 2 1 - - WNW 1024,4 6 0,0
20.01.2019 22:00:00 1,9 0,4 4 2 - - NNW 1024,2 6 0,0
20.01.2019 21:00:00 1,5 -0,1 4 2 - - N 1023,6 7 0,0
20.01.2019 20:00:00 0,8 -0,9 5 3 - - N 1023,2 7 0,0
20.01.2019 19:00:00 2,0 -0,7 5 3 - - N 1022,5 10 0,0
20.01.2019 18:00:00 2,1 -0,9 5 3 - - NNE 1021,9 11 0,0
20.01.2019 17:00:00 1,9 -0,9 8 4 - - N 1021,2 12 0,0
20.01.2019 16:00:00 2,5 -1,2 5 3 - - N 1020,5 13 0,0
20.01.2019 15:00:00 3,3 -1,3 8 4 - - NNE 1019,7 14 0,0
20.01.2019 14:00:00 3,1 -0,3 8 4 - - N 1019,2 12 0,0
20.01.2019 13:00:00 2,7 -0,2 5 3 - - NNW 1019,0 10 0,0
20.01.2019 12:00:00 2,9 -0,6 9 5 - - E 1018,8 14 0,0
20.01.2019 11:00:00 2,2 -0,3 4 2 - - NE 1018,5 14 0,0
20.01.2019 10:00:00 0,5 -0,9 2 1 - - NNE 1018,1 7 0,0
20.01.2019 09:00:00 -0,7 -1,4 2 1 - - ENE 1017,3 7 0,0
20.01.2019 08:00:00 -0,4 -1,3 4 2 - - E 1016,1 7 0,0
20.01.2019 07:00:00 -0,6 -1,1 8 4 - - E 1015,3 6 0,0
20.01.2019 06:00:00 -1,6 -2,0 9 5 - - E 1014,5 4,3 0,0
20.01.2019 05:00:00 -1,1 -1,5 9 5 - - E 1013,9 4,5 0,0
20.01.2019 04:00:00 -1,2 -1,6 8 4 - - E 1013,6 6 0,0
20.01.2019 03:00:00 -0,9 -1,5 8 4 - - E 1013,3 4,7 0,0
20.01.2019 02:00:00 -0,2 -0,7 9 5 - - E 1012,9 5 0,0
20.01.2019 01:00:00 0,9 -0,1 5 3 - - ENE 1012,3 8 0,0
20.01.2019 00:00:00 2,0 0,1 5 3 - - ESE 1011,9 11 0,0
19.01.2019 23:00:00 2,4 1,3 5 3 - - ESE 1011,6 9 0,0
19.01.2019 22:00:00 2,7 1,7 9 5 - - ESE 1011,0 8 0,0
19.01.2019 21:00:00 2,9 2,3 11 6 - - ESE 1010,3 5 0,0
19.01.2019 20:00:00 3,0 2,6 11 6 - - SE 1010,0 5 0,0
19.01.2019 19:00:00 3,1 3,1 16 9 - - ESE 1009,5 3,2 0,0
19.01.2019 18:00:00 3,2 3,2 15 8 - - ESE 1009,2 1,3 0,0
19.01.2019 17:00:00 3,4 3,4 16 9 - - SE 1008,7 1,3 0,0
19.01.2019 16:00:00 3,4 3,4 15 8 - - ESE 1008,3 2,0 0,0
19.01.2019 15:00:00 3,3 3,1 15 8 - - SE 1008,0 2,7 0,0
19.01.2019 14:00:00 2,9 2,6 16 9 - - ESE 1008,2 6 0,0
19.01.2019 13:00:00 2,9 2,4 15 8 - - ESE 1008,5 2,6 0,0
19.01.2019 12:00:00 3,0 2,2 16 9 - - SE 1008,9 7 0,0
19.01.2019 11:00:00 2,8 2,0 16 9 - - SE 1009,3 9 0,0
19.01.2019 10:00:00 2,5 1,8 18 10 - - SE 1009,3 10 0,0
19.01.2019 09:00:00 2,3 1,3 18 10 - - SE 1009,1 12 0,0
19.01.2019 08:00:00 2,1 0,9 16 9 - - SE 1008,9 15 0,0
19.01.2019 07:00:00 2,1 0,7 22 12 - - SE 1008,8 16 0,0
19.01.2019 06:00:00 1,9 0,2 22 12 - - SE 1008,9 20 0,0
19.01.2019 05:00:00 1,9 0,3 18 10 - - SE 1009,4 16 0,2
19.01.2019 04:00:00 1,5 0,3 16 9 - - SE 1009,9 16 0,0
19.01.2019 03:00:00 1,4 0,0 16 9 - - SE 1010,4 14 0,0
19.01.2019 02:00:00 1,7 -0,6 16 9 - - SE 1010,7 20 0,0
19.01.2019 01:00:00 1,8 -0,9 16 9 - - SSE 1011,2 28 0,0
19.01.2019 00:00:00 1,8 -0,8 18 10 - - SE 1011,7 20 0,0
18.01.2019 23:00:00 1,7 -0,8 18 10 - - SE 1011,8 26 0,0
18.01.2019 22:00:00 1,7 -1,1 21 11 - - SE 1012,0 29 0,0
18.01.2019 21:00:00 1,8 -1,1 18 10 - - SE 1012,4 24 0,0
18.01.2019 20:00:00 2,0 -1,2 16 9 - - SE 1012,7 29 0,0
18.01.2019 19:00:00 2,7 -1,1 21 11 - - SSE 1012,7 26 0,0
18.01.2019 18:00:00 2,9 -1,1 18 10 - - SSE 1013,0 40 0,0
18.01.2019 17:00:00 3,0 -1,5 16 9 - - SSE 1013,3 35 0,0
18.01.2019 16:00:00 4,1 -1,8 18 10 - - S 1013,7 50 0,0
18.01.2019 15:00:00 4,6 -1,6 16 9 - - S 1014,0 35 0,0
18.01.2019 14:00:00 5,1 0,4 13 7 - - S 1014,4 28 0,0
18.01.2019 13:00:00 4,2 0,0 13 7 - - SSE 1015,3 23 0,0
18.01.2019 12:00:00 2,3 -1,1 13 7 - - SSE 1016,3 19 0,0
18.01.2019 11:00:00 1,7 -1,7 11 6 - - SSE 1017,1 24 0,0
18.01.2019 10:00:00 0,8 -2,4 9 5 - - SSE 1017,5 30 0,0
18.01.2019 09:00:00 -0,1 -3,3 9 5 - - SSE 1017,7 27 0,0
18.01.2019 08:00:00 -0,7 -3,8 9 5 - - SSE 1017,8 40 0,0
18.01.2019 07:00:00 -1,0 -3,6 8 4 - - SSE 1017,9 29 0,0
18.01.2019 06:00:00 -1,0 -3,7 5 3 - - SSE 1018,2 26 0,0
18.01.2019 05:00:00 -0,8 -3,6 8 4 - - S 1018,6 29 0,0
18.01.2019 04:00:00 -1,1 -3,5 8 4 - - SSE 1018,9 26 0,0
18.01.2019 03:00:00 -1,1 -3,5 8 4 - - ESE 1019,3 28 0,0
18.01.2019 02:00:00 -0,6 -3,7 0 0 - - N 1019,5 27 0,0
18.01.2019 01:00:00 -0,3 -3,7 5 3 - - NW 1019,6 30 0,0
18.01.2019 00:00:00 -0,4 -3,8 4 2 - - WNW 1019,6 30 0,0
17.01.2019 23:00:00 -0,2 -3,7 4 2 - - NW 1019,5 35 0,0
17.01.2019 22:00:00 -0,6 -3,7 5 3 - - NNW 1019,3 30 0,0
17.01.2019 21:00:00 -0,5 -3,6 5 3 - - NW 1019,4 30 0,0
17.01.2019 20:00:00 -0,6 -3,6 5 3 - - NW 1019,0 30 0,0
17.01.2019 19:00:00 0,1 -4,0 8 4 - - NNW 1018,2 35 0,0
17.01.2019 18:00:00 0,4 -3,5 9 5 - - NNW 1017,8 40 0,0
17.01.2019 17:00:00 0,7 -3,7 8 4 - - NW 1017,2 45 0,0
17.01.2019 16:00:00 2,2 -3,7 11 6 - - NNW 1016,2 40 0,0
17.01.2019 15:00:00 3,0 -4,3 15 8 - - NNW 1015,0 29 0,0
17.01.2019 14:00:00 3,1 -3,6 15 8 - - NNW 1014,2 30 0,0
17.01.2019 13:00:00 2,9 -2,3 13 7 - - NNW 1013,8 40 0,0
17.01.2019 12:00:00 1,7 -2,8 16 9 - - NNW 1013,3 24 0,2
17.01.2019 11:00:00 0,8 -1,6 13 7 - - NW 1012,8 40 0,0
17.01.2019 10:00:00 -0,3 -0,8 11 6 - - NW 1011,9 30 0,0
17.01.2019 09:00:00 -0,9 -1,1 9 5 - - NNW 1010,8 35 0,0
17.01.2019 08:00:00 0,0 -0,6 24 13 46 25 N 1009,2 2,1 0,4
17.01.2019 07:00:00 1,9 1,5 11 6 - - NW 1007,1 25 0,0
17.01.2019 06:00:00 1,6 1,5 11 6 - - NW 1006,0 35 0,0
17.01.2019 05:00:00 1,8 1,7 13 7 - - NW 1005,0 10 0,0
17.01.2019 04:00:00 2,6 2,5 9 5 - - NW 1004,4 7 0,4
17.01.2019 03:00:00 2,9 2,8 9 5 - - NW 1003,6 3,7 0,2
17.01.2019 02:00:00 3,3 3,0 13 7 - - WNW 1002,8 11 0,2
17.01.2019 01:00:00 3,2 2,8 8 4 - - W 1002,7 10 0,0
17.01.2019 00:00:00 3,3 2,9 8 4 - - WSW 1002,8 13 0,0
16.01.2019 23:00:00 2,8 2,7 9 5 - - SW 1003,1 7 0,0
16.01.2019 22:00:00 2,6 2,0 11 6 - - SW 1003,3 16 0,0
16.01.2019 21:00:00 2,5 2,4 8 4 - - W 1003,3 9 0,0
16.01.2019 20:00:00 2,8 2,7 9 5 - - W 1003,1 11 0,0
16.01.2019 19:00:00 2,7 2,5 8 4 - - WNW 1003,2 14 0,0
16.01.2019 18:00:00 3,5 3,3 8 4 - - W 1003,2 6 0,0
16.01.2019 17:00:00 3,9 3,9 9 5 - - NW 1002,7 35 0,8
16.01.2019 16:00:00 4,6 4,5 9 5 - - NW 1002,7 1,6 1,6
16.01.2019 15:00:00 5,1 4,6 15 8 - - NW 1002,1 4,0 0,4
16.01.2019 14:00:00 8,2 6,7 15 8 - - W 1001,5 50 0,0
16.01.2019 13:00:00 8,4 7,1 21 11 - - WSW 1002,3 50 0,2
16.01.2019 12:00:00 7,9 7,9 13 7 - - WSW 1003,4 7 1,2
16.01.2019 11:00:00 7,8 7,6 16 9 - - SW 1004,4 3,7 0,2
16.01.2019 10:00:00 7,7 7,3 15 8 - - SW 1005,3 6 0,2
16.01.2019 09:00:00 7,5 7,3 18 10 - - SW 1005,8 8 0,0
16.01.2019 08:00:00 7,2 7,2 15 8 - - SW 1006,2 9 0,0
16.01.2019 07:00:00 7,2 7,0 15 8 - - WSW 1007,0 5 0,0
16.01.2019 06:00:00 7,2 6,8 16 9 - - SW 1007,6 11 0,0
16.01.2019 05:00:00 7,4 6,4 15 8 - - WSW 1008,5 14 0,0
16.01.2019 04:00:00 7,4 6,2 13 7 - - SW 1009,5 27 0,0
16.01.2019 03:00:00 7,3 6,1 16 9 - - WSW 1010,4 25 0,0

tt = temperature
td = dewpoint
ff = wind speed
fx = gusts
dd = wind direction
ppp = reduced air pressure
vv = visibility
rr = precipitation

Next stations